This is the latest recevied weather packets stored in our database for station/object WW5JC. If no packets are shown the sender has not sent any weather packets the latest 10 day(s).
| Time | Temp. | Humidity | Pressure | Rain* | Wind** | Luminosity | Snow |
|---|---|---|---|---|---|---|---|
| 1777996729 | 23.33° C | 86% | 1006.8 hPa | 0 mm | - | 178 W/m² | - |
| 1777996425 | 23.33° C | 86% | 1007 hPa | 0 mm | - | 192 W/m² | - |
| 1777996122 | 23.33° C | 86% | 1006.9 hPa | 0 mm | - | 213 W/m² | - |
| 1777995818 | 23.33° C | 86% | 1006.9 hPa | 0 mm | - | 187 W/m² | - |
| 1777995514 | 22.78° C | 87% | 1006.9 hPa | 0 mm | - | 226 W/m² | - |
| 1777995211 | 22.78° C | 87% | 1006.9 hPa | 0 mm | - | 168 W/m² | - |
| 1777994908 | 22.78° C | 86% | 1006.8 hPa | 0 mm | - | 162 W/m² | - |
| 1777994605 | 22.78° C | 88% | 1006.5 hPa | 0 mm | - | 157 W/m² | - |
| 1777994300 | 22.22° C | 88% | 1006.6 hPa | 0 mm | - | 150 W/m² | - |
| 1777993997 | 22.22° C | 88% | 1006.8 hPa | 0 mm | - | 129 W/m² | - |
| 1777993694 | 22.22° C | 88% | 1006.9 hPa | 0 mm | - | 117 W/m² | - |
| 1777993391 | 22.22° C | 88% | 1007 hPa | 0 mm | - | 86 W/m² | - |
| 1777993091 | 22.22° C | 88% | 1006.7 hPa | 0 mm | - | 86 W/m² | - |
| 1777992790 | 22.22° C | 88% | 1006.7 hPa | 0 mm | - | 76 W/m² | - |
| 1777992487 | 22.22° C | 88% | 1006.6 hPa | 0 mm | - | 77 W/m² | - |
| 1777992185 | 21.67° C | 89% | 1006.7 hPa | 0 mm | - | 107 W/m² | - |
| 1777991881 | 21.67° C | 89% | 1006.7 hPa | 0 mm | - | 76 W/m² | - |
| 1777991579 | 21.67° C | 89% | 1006.9 hPa | 0 mm | - | 63 W/m² | - |
| 1777991276 | 21.67° C | 89% | 1006.9 hPa | 0 mm | - | 73 W/m² | - |
| 1777990973 | 21.67° C | 89% | 1006.9 hPa | 0 mm | - | 56 W/m² | - |
| 1777990671 | 21.67° C | 89% | 1006.9 hPa | 0 mm | - | 55 W/m² | - |
| 1777990368 | 21.67° C | 89% | 1007.1 hPa | 0 mm | - | 57 W/m² | - |
| 1777990064 | 21.67° C | 89% | 1006.8 hPa | 0 mm | - | 46 W/m² | - |
| 1777989761 | 21.67° C | 89% | 1006.9 hPa | 0 mm | - | 42 W/m² | - |
| 1777989457 | 21.67° C | 90% | 1006.8 hPa | 0 mm | - | 42 W/m² | - |
* Rain latest hour (hover to see other rain measurements)
** Current wind speed in m/s (hover to see current wind gust speed)